Martinsburg, WV

9:54 PM EST on December 10, 2019 (GMT -0500)
Eastern W Va Regional-Shepherd

Weather History for KMRB - October, 2019

Change the Weather History Date:

Thursday, October 10, 2019

  Actual Average Record
Temperature  
Mean Temperature 60 °F 56 °F  
Max Temperature 73 °F 67 °F 90 °F (1939)
Min Temperature 46 °F 44 °F 30 °F (1972)
Degree Days  
Heating Degree Days 6 10  
Month to date heating degree days 34 82  
Since 1 July heating degree days 46 173  
Cooling Degree Days 0 0  
Month to date cooling degree days 37 8  
Year to date cooling degree days 1280 893  
Growing Degree Days 10 (Base 50)    
Moisture  
Dew Point 47 °F    
Average Humidity 71    
Maximum Humidity 93    
Minimum Humidity 48    
Precipitation  
Precipitation 0.00 in 0.10 in 2.78 in (2013)
Month to date precipitation 1.20 1.01  
Year to date precipitation 36.10 30.82  
Sea Level Pressure  
Sea Level Pressure 30.24 in    
Wind  
Wind Speed 3 mph ()    
Max Wind Speed 9 mph    
Max Gust Speed 12 mph    
Visibility 10.0 miles    
Events      
T = Trace of Precipitation, MM = Missing Value Source: Averaged Metar Reports

Daily Weather History Graph

Daily Weather History Graph

Search for Another Location

Airport or City:

Astronomy

Oct. 10, 2019 Rise Set
Actual Time 7:16 AM EDT 6:40 PM EDT
Civil Twilight 6:49 AM EDT 7:07 PM EDT
Nautical Twilight 6:18 AM EDT 7:38 PM EDT
Astronomical Twilight 5:47 AM EDT 8:09 PM EDT
Moon 5:40 PM EDT (10/10) 3:59 AM EDT (10/10)
Length of Visible Light 12h 17m
Length of Day
11h 24m
Waxing Gibbous, 91% of the Moon is Illuminated
Oct 10
Waxing Gibbous
Oct 13
Full
Oct 21
Last Quarter
Oct 27
New
Nov 4
First Quarter

Hourly Weather History & Observations

Time (EDT) Temp. Dew Point Humidity Pressure Visibility Wind Dir Wind Speed Gust Speed Precip Events Conditions
12:53 AM 50.0 °F 44.1 °F 80% 30.27 in 10.0 mi NNE 3.5 mph - N/A   Clear
1:53 AM 48.9 °F 43.0 °F 80% 30.27 in 10.0 mi NNE 3.5 mph - N/A   Clear
2:53 AM 46.9 °F 43.0 °F 86% 30.26 in 10.0 mi North 3.5 mph - N/A   Clear
3:22 AM 46.9 °F 44.1 °F 90% 30.26 in 10.0 mi North 3.5 mph - N/A   Mostly Cloudy
3:53 AM 50.0 °F 44.1 °F 80% 30.26 in 10.0 mi Calm Calm - N/A   Mostly Cloudy
4:27 AM 51.1 °F 44.1 °F 77% 30.26 in 10.0 mi North 3.5 mph - N/A   Overcast
4:46 AM 51.1 °F 44.1 °F 77% 30.27 in 10.0 mi North 4.6 mph - N/A   Overcast
4:53 AM 51.1 °F 44.1 °F 77% 30.27 in 10.0 mi North 4.6 mph - N/A   Overcast
5:14 AM 50.0 °F 44.1 °F 80% 30.26 in 10.0 mi North 4.6 mph - N/A   Mostly Cloudy
5:53 AM 48.9 °F 43.0 °F 80% 30.27 in 10.0 mi North 4.6 mph - N/A   Clear
6:53 AM 48.9 °F 43.0 °F 80% 30.29 in 10.0 mi North 4.6 mph - N/A   Mostly Cloudy
7:53 AM 50.0 °F 43.0 °F 77% 30.30 in 10.0 mi Calm Calm - N/A   Scattered Clouds
8:53 AM 54.0 °F 44.1 °F 69% 30.31 in 10.0 mi North 4.6 mph - N/A   Clear
9:53 AM 57.0 °F 42.1 °F 57% 30.30 in 10.0 mi NNE 9.2 mph - N/A   Partly Cloudy
10:53 AM 60.1 °F 43.0 °F 53% 30.29 in 10.0 mi NNW 5.8 mph - N/A   Clear
11:53 AM 62.1 °F 45.0 °F 53% 30.27 in 10.0 mi Variable 3.5 mph - N/A   Clear
12:53 PM 64.9 °F 46.9 °F 52% 30.25 in 10.0 mi Variable 4.6 mph - N/A   Clear
1:53 PM 68.0 °F 48.0 °F 49% 30.22 in 10.0 mi Calm Calm - N/A   Clear
2:53 PM 70.0 °F 50.0 °F 49% 30.20 in 10.0 mi Calm Calm - N/A   Clear
3:53 PM 71.1 °F 51.1 °F 49% 30.18 in 10.0 mi NNE 5.8 mph - N/A   Clear
4:53 PM 72.0 °F 51.1 °F 48% 30.16 in 10.0 mi Calm Calm - N/A   Clear
5:53 PM 71.1 °F 52.0 °F 51% 30.17 in 10.0 mi Calm Calm - N/A   Clear
6:53 PM 63.0 °F 53.1 °F 70% 30.17 in 10.0 mi Calm Calm - N/A   Clear
7:53 PM 60.1 °F 53.1 °F 78% 30.17 in 10.0 mi Calm Calm - N/A   Clear
8:53 PM 57.0 °F 52.0 °F 83% 30.17 in 10.0 mi Calm Calm - N/A   Clear
9:53 PM 55.0 °F 52.0 °F 89% 30.18 in 10.0 mi Calm Calm - N/A   Clear
10:53 PM 55.0 °F 52.0 °F 89% 30.19 in 10.0 mi Calm Calm - N/A   Clear
11:53 PM 53.1 °F 51.1 °F 93% 30.19 in 10.0 mi Calm Calm - N/A   Clear